Location: Unspecified
(58.9933°N, 5.6375°E)
Time: 01:23:36
(UTC+01:00)

Okean 3 - Visible Passes

Search period start: 11 February 2016 00:00
Search period end: 21 February 2016 00:00
Orbit: 578 x 605 km, 82.5° (Epoch: 10 February)

Date Brightness Start Highest point End Pass type
(mag) Time Alt. Az. Time Alt. Az. Time Alt. Az.
11 Feb 6.6 06:47:31 10° ESE 06:50:05 16° E 06:52:38 10° NE visible
11 Feb 3.4 18:18:01 10° N 18:22:12 62° ENE 18:26:23 10° SSE visible
11 Feb 6.0 19:55:53 10° NW 19:59:10 22° W 20:02:26 10° SW visible
12 Feb 6.4 06:55:26 10° SE 06:58:35 21° E 07:01:44 10° NE visible
12 Feb 3.4 18:26:41 10° NNW 18:30:56 84° E 18:35:09 10° SSE visible
12 Feb 6.5 20:04:56 10° NW 20:07:40 17° W 20:10:24 10° WSW visible
13 Feb 5.9 07:03:33 10° SSE 07:07:07 27° E 07:10:42 10° NNE visible
13 Feb 3.8 18:35:23 10° NNW 18:39:35 72° W 18:43:48 10° S visible
13 Feb 6.9 20:14:14 10° NW 20:16:08 13° W 20:18:02 10° WSW visible
14 Feb 5.3 07:11:50 10° SSE 07:15:40 37° E 07:19:33 10° NNE visible
14 Feb 4.4 18:44:07 10° NNW 18:48:14 53° W 18:52:20 10° S visible
15 Feb 4.6 07:20:13 10° S 07:24:16 50° E 07:28:20 10° NNE visible
15 Feb 5.1 18:52:54 10° NNW 18:56:50 39° W 19:00:46 10° SSW visible
16 Feb 7.0 05:54:45 10° ESE 05:56:24 12° ENE 05:58:03 10° NE visible
16 Feb 5.7 19:01:45 10° NNW 19:05:24 29° W 19:09:04 10° SSW visible
17 Feb 6.7 06:02:16 10° ESE 06:04:51 16° E 06:07:27 10° NE visible
17 Feb 6.3 19:10:40 10° NW 19:13:56 22° W 19:17:13 10° SW visible
18 Feb 6.3 06:10:10 10° SE 06:13:20 21° E 06:16:32 10° NE visible
18 Feb 6.7 19:19:43 10° NW 19:22:25 17° W 19:25:09 10° WSW visible
19 Feb 5.8 06:18:17 10° SSE 06:21:52 28° E 06:25:28 10° NNE visible
19 Feb 6.9 19:29:01 10° NW 19:30:53 13° W 19:32:46 10° WSW visible
20 Feb 5.1 06:26:34 10° SSE 06:30:25 37° E 06:34:18 10° NNE visible
